This is the latest recevied weather packets stored in our database for station/object JS2WAD-13. If no packets are shown the sender has not sent any weather packets the latest 10 day(s).
| Time | Temp. | Humidity | Pressure | Rain* | Wind** | Luminosity | Snow |
|---|---|---|---|---|---|---|---|
| 1777613497 | 21.67° C | 63% | 890 hPa | 0 mm | - | 204 W/m² | - |
| 1777613197 | 21.67° C | 64% | 890 hPa | 0 mm | - | 167 W/m² | - |
| 1777612897 | 21.67° C | 65% | 890.1 hPa | 0 mm | - | 186 W/m² | - |
| 1777612597 | 21.67° C | 64% | 890.2 hPa | 0 mm | - | 601 W/m² | - |
| 1777612297 | 21.67° C | 65% | 890.2 hPa | 0 mm | - | 332 W/m² | - |
| 1777611997 | 21.11° C | 68% | 890.4 hPa | 0 mm | - | 267 W/m² | - |
| 1777611697 | 21.11° C | 72% | 890.4 hPa | 0 mm | - | 325 W/m² | - |
| 1777611397 | 21.11° C | 73% | 890.3 hPa | 0 mm | - | 246 W/m² | - |
| 1777611097 | 21.11° C | 74% | 890.4 hPa | 0 mm | - | 234 W/m² | - |
| 1777610797 | 20.56° C | 75% | 890.4 hPa | 0 mm | - | 264 W/m² | - |
| 1777610497 | 20.56° C | 78% | 890.4 hPa | 0 mm | - | 313 W/m² | - |
| 1777610197 | 20.56° C | 78% | 890.6 hPa | 0 mm | - | 271 W/m² | - |
| 1777609897 | 20° C | 81% | 890.5 hPa | 0 mm | - | 258 W/m² | - |
| 1777609597 | 20° C | 82% | 890.7 hPa | 0 mm | - | 202 W/m² | - |
| 1777609297 | 20° C | 81% | 890.6 hPa | 0 mm | - | 142 W/m² | - |
| 1777608997 | 20° C | 82% | 890.7 hPa | 0 mm | - | 134 W/m² | - |
| 1777608697 | 20° C | 86% | 890.7 hPa | 0 mm | - | 251 W/m² | - |
| 1777608397 | 19.44° C | 87% | 890.8 hPa | 0 mm | - | 387 W/m² | - |
| 1777608097 | 18.89° C | 91% | 890.9 hPa | 0 mm | - | 664 W/m² | - |
| 1777607797 | 18.33° C | 94% | 890.9 hPa | 0 mm | - | 272 W/m² | - |
| 1777607497 | 17.78° C | 95% | 891 hPa | 0 mm | - | 272 W/m² | - |
| 1777607197 | 17.78° C | 96% | 891 hPa | 0 mm | - | 229 W/m² | - |
| 1777606897 | 17.78° C | 96% | 891.1 hPa | 0 mm | - | 186 W/m² | - |
| 1777606597 | 17.22° C | 96% | 891.3 hPa | 0 mm | - | 128 W/m² | - |
| 1777606297 | 17.22° C | 96% | 891.4 hPa | 0 mm | - | 72 W/m² | - |
* Rain latest hour (hover to see other rain measurements)
** Current wind speed in m/s (hover to see current wind gust speed)